Starlink 32481

operational
NORAD ID: 62320 Int'l Des: 2024-239 Owner: SPXS Country: US Constellation: starlink
LEOCIRCULAR

About Starlink 32481

Description loading...

Live Position

Loading 3D Globe...

Upcoming Passes

Altitude History

Altitude vs Time

uPlot chart will show altitude changes over time

Two-Line Element Set

1 62320U 24239V 25260.46076150 .00036758 00000-0 92371-3 0 9991
2 62320 53.1543 267.7664 0002551 93.8418 266.2879 15.39644819 43018
Epoch: Sep 17, 2025 • Age: 22 hours

Current Status

Altitude 450.8 km
Velocity 7.65 km/s
Sub-Earth Point 48.53°N, 111.87°W
Launch Date Dec 13, 2024
Age 0.7 years
Type internet

Technical Details

Classification Payload
Mass 730.00 kg
Dry Mass 700.00 kg
Total Mass 730.00 kg
Length 0.30 m
Diameter 4.10 m
Span 29.00 m
Shape Box + pan
Manufacturer SPXS
Bus Type Starlink V2M
Phase Status In Orbit
Owner/State SPXS/US

Large Constellations

Loading constellations...